TimeEST,TemperatureF,Dew PointF,Humidity,Sea Level PressureIn,VisibilityMPH,Wind Direction,Wind SpeedMPH,Gust SpeedMPH,PrecipitationIn,Events,Conditions,WindDirDegrees,DateUTC
12:08 AM,28.0,26.1,92,29.94,0.8,North,18.4,29.9,0.00,Snow,Light Snow,10,2013-03-08 05:08:00
12:54 AM,27.0,26.1,96,29.98,0.8,North,18.4,25.3,0.07,Snow,Light Snow,10,2013-03-08 05:54:00
1:37 AM,27.0,26.1,96,29.93,1.0,North,19.6,28.8,0.02,Snow,Light Snow,360,2013-03-08 06:37:00
1:54 AM,27.0,25.0,92,29.97,1.0,North,13.8,25.3,0.04,Snow,Light Snow,10,2013-03-08 06:54:00
2:00 AM,27.0,25.0,92,29.92,0.8,North,16.1,25.3,0.00,Snow,Light Snow,10,2013-03-08 07:00:00
2:26 AM,27.0,25.0,92,29.91,1.0,North,17.3,25.3,0.01,,Overcast,10,2013-03-08 07:26:00
2:34 AM,27.0,25.0,92,29.91,0.8,North,16.1,26.5,0.02,,Mist,10,2013-03-08 07:34:00
2:54 AM,27.0,25.0,92,29.94,0.8,North,12.7,24.2,0.04,,Mist,10,2013-03-08 07:54:00
3:54 AM,28.0,26.1,92,29.94,0.5,North,21.9,27.6,0.02,Fog,Light Freezing Fog,10,2013-03-08 08:54:00
4:54 AM,28.0,26.1,92,29.94,0.8,NNE,20.7,25.3,N/A,,Mist,20,2013-03-08 09:54:00
5:54 AM,28.0,26.1,92,29.94,0.8,NNE,16.1,31.1,N/A,,Overcast,20,2013-03-08 10:54:00
6:02 AM,28.0,26.1,92,29.90,1.0,NNE,17.3,29.9,N/A,,Overcast,20,2013-03-08 11:02:00
6:17 AM,28.0,26.1,92,29.90,0.8,North,21.9,29.9,N/A,,Overcast,10,2013-03-08 11:17:00
6:26 AM,28.0,26.1,92,29.90,0.5,NNE,18.4,32.2,N/A,Fog,Light Freezing Fog,20,2013-03-08 11:26:00
6:40 AM,28.0,26.1,92,29.91,0.2,NNE,17.3,31.1,N/A,Fog,Light Freezing Fog,20,2013-03-08 11:40:00
6:54 AM,28.0,26.1,92,29.95,0.2,NNE,17.3,35.7,N/A,Fog,Light Freezing Fog,20,2013-03-08 11:54:00
7:54 AM,28.0,26.1,92,29.96,0.2,NNE,17.3,33.4,N/A,Fog,Light Freezing Fog,30,2013-03-08 12:54:00
8:54 AM,28.0,26.1,92,29.96,0.2,NNE,17.3,29.9,0.14,Fog-Snow,Snow,20,2013-03-08 13:54:00
9:03 AM,28.0,27.0,96,29.92,0.2,NNE,19.6,26.5,0.02,Fog-Snow,Snow,20,2013-03-08 14:03:00
9:27 AM,28.0,26.1,92,29.92,0.2,North,20.7,29.9,0.07,Fog-Snow,Snow,10,2013-03-08 14:27:00
9:54 AM,28.0,26.1,92,29.97,0.2,North,17.3,31.1,0.14,Fog-Snow,Snow,10,2013-03-08 14:54:00
10:04 AM,28.0,26.1,92,29.93,0.2,North,16.1,29.9,0.02,Fog-Snow,Snow,10,2013-03-08 15:04:00
10:29 AM,28.0,27.0,96,29.94,0.2,NNE,16.1,27.6,0.07,Fog-Snow,Snow,20,2013-03-08 15:29:00
10:39 AM,28.0,27.0,96,29.94,0.2,NNE,18.4,26.5,0.09,Fog-Snow,Snow,20,2013-03-08 15:39:00
10:54 AM,28.9,27.0,92,29.98,0.2,North,18.4,28.8,0.10,Fog-Snow,Snow,10,2013-03-08 15:54:00
11:18 AM,28.9,27.0,92,29.95,0.2,NNE,15.0,26.5,0.05,Fog-Snow,Snow,20,2013-03-08 16:18:00
11:32 AM,28.9,27.0,92,29.95,0.2,North,17.3,28.8,0.08,Fog-Snow,Snow,10,2013-03-08 16:32:00
11:54 AM,28.9,27.0,92,29.99,0.2,North,16.1,28.8,0.12,Fog-Snow,Snow,10,2013-03-08 16:54:00
12:42 PM,30.0,28.0,92,29.96,0.2,NNE,16.1,26.5,0.11,Fog,Light Freezing Fog,20,2013-03-08 17:42:00
12:54 PM,30.0,28.0,92,30.01,0.2,NNE,19.6,29.9,0.13,Fog,Light Freezing Fog,30,2013-03-08 17:54:00
1:10 PM,30.0,28.9,96,29.97,0.2,NNE,20.7,31.1,0.03,Fog,Light Freezing Fog,20,2013-03-08 18:10:00
1:21 PM,30.0,28.9,96,29.97,0.2,NNE,17.3,24.2,0.05,Fog-Snow,Heavy Snow,20,2013-03-08 18:21:00
1:33 PM,30.9,28.9,92,29.96,0.5,North,19.6,31.1,0.07,Fog-Snow,Snow,10,2013-03-08 18:33:00
1:46 PM,30.9,28.0,89,29.96,0.8,NNE,20.7,32.2,0.07,Snow,Light Snow,20,2013-03-08 18:46:00
1:54 PM,32.0,27.0,82,30.01,1.0,NNE,18.4,31.1,0.07,Snow,Light Snow,20,2013-03-08 18:54:00
2:21 PM,34.0,25.0,70,29.98,4.0,NE,13.8,26.5,0.01,Snow,Light Snow,40,2013-03-08 19:21:00
2:28 PM,35.1,24.1,64,29.97,6.0,NNE,12.7,25.3,0.01,,Overcast,30,2013-03-08 19:28:00
2:54 PM,36.0,24.1,62,30.02,10.0,NNE,12.7,25.3,0.01,,Overcast,30,2013-03-08 19:54:00
3:54 PM,37.0,23.0,57,30.04,10.0,NNE,12.7,24.2,N/A,,Mostly Cloudy,30,2013-03-08 20:54:00
4:54 PM,37.0,23.0,57,30.07,10.0,NNE,9.2,-,N/A,,Overcast,30,2013-03-08 21:54:00
5:54 PM,37.9,24.1,57,30.09,10.0,NNE,12.7,18.4,N/A,,Overcast,20,2013-03-08 22:54:00
6:54 PM,37.9,23.0,55,30.11,10.0,North,13.8,20.7,N/A,,Overcast,10,2013-03-08 23:54:00
7:54 PM,37.9,19.9,48,30.13,10.0,North,13.8,-,N/A,,Clear,10,2013-03-09 00:54:00
8:54 PM,37.9,18.0,45,30.14,10.0,North,15.0,23.0,N/A,,Clear,10,2013-03-09 01:54:00
9:54 PM,37.0,18.0,46,30.15,10.0,North,16.1,27.6,N/A,,Clear,10,2013-03-09 02:54:00
10:54 PM,37.0,17.1,44,30.15,10.0,North,12.7,23.0,N/A,,Clear,10,2013-03-09 03:54:00
11:54 PM,36.0,16.0,44,30.16,10.0,North,15.0,21.9,N/A,,Clear,10,2013-03-09 04:54:00